User: anonymous   Login
Location: Oshawa
(43.9000°N, 78.8670°W)
Time: 06:04:00
(UTC-04:00)
Language:

SPOT 5 - Orbit

View from above orbital plane
View from above orbital plane
View from above satellite
View from above satellite

Ground track
Ground track

The orbit data is extracted from the following two-line orbital elements,

1 27421U 02021A   18203.26796330  .00000102  00000-0  33944-4 0  9991
2 27421  98.3535 270.7974 0135193 182.4266 177.6289 14.51942487843727
Epoch (UTC): 22 July 2018 06:25:52
Eccentricity: 0.0135193
inclination: 98.3535°
perigee height: 623 km
apogee height: 815 km
right ascension of ascending node: 270.7974°
argument of perigee: 182.4266°
revolutions per day: 14.51942487
mean anomaly at epoch: 177.6289°
orbit number at epoch: 84372

The dashed part of the orbit path shows where the satellite is in the earth's shadow,  

DLR